SCP
0 0 0 -0 -0 0 0 0 0 0 0 0 0 0 0 0 0 0 0 -0 -0 -0 -0 -0 -0 -1 -0 -0 -0 -0 -0 -0 -0 -0 0 -0 -0 0 0 0 0 0 0 0 0 0 0 0 0
0 0 -0 0 0 0 0 0 0 0 0 0 0 0 0 0 0 0 0 -0 -0 -0 -0 -0 -0 -0 -1 -1 -0 -0 -0 -0 -0 -0 -0 -0 0 0 0 0 0 0 0 0 0 0 0 0 0
-0 0 0 0 0 0 0 0 0 0 0 0 0 0 0 0 0 0 0 -0 -0 -0 -0 -0 -0 -0 -0 -0 -0 -0 -0 -0 -0 -0 -0 -0 0 0 0 0 0 0 0 0 0 0 0 0 0
-0 -0 -0 0 0 0 0 0 0 0 0 0 0 0 0 0 0 0 0 0 -0 -0 -0 -0 -0 -0 -0 -0 -0 -0 -0 -0 -0 -0 -0 -0 -0 0 0 0 0 0 0 0 0 0 0 0 0
0 0 0 0 0 0 0 0 0 0 0 0 0 0 0 0 0 0 0 0 0 0 0 -0 -0 -0 -0 -0 -0 -0 -0 -0 -0 -0 -0 -0 -0 -0 0 0 0 0 0 0 0 0 0 0 0
0 0 0 0 0 0 0 0 0 0 0 0 0 0 0 0 0 0 0 0 0 0 0 -0 -0 -0 -0 -0 -0 0 0 0 0 0 -0 -0 -0 0 0 0 0 0 0 0 0 0 0 0 0
0 0 0 0 0 0 0 0 0 0 0 0 0 0 0 0 0 0 0 0 0 0 0 0 0 -0 -0 -0 -0 -0 0 0 0 0 0 0 0 0 0 0 0 0 0 0 0 0 0 0 0
0 0 0 0 0 0 0 0 0 0 0 0 0 0 0 0 0 0 0 0 0 0 0 0 0 0 0 0 -0 -0 0 0 0 0 0 0 0 0 0 0 0 0 0 0 0 0 0 0 0
0 0 0 0 0 0 0 0 0 0 0 0 0 0 0 0 0 0 0 0 0 0 0 0 0 0 0 0 0 0 0 0 0 0 0 0 0 0 0 0 0 0 0 0 0 0 0 0 0
0 0 0 0 0 0 0 0 0 0 0 0 0 0 0 0 0 0 0 0 0 0 0 0 0 0 0 0 0 0 0 0 0 0 0 0 0 0 0 0 0 0 0 0 0 0 0 0 0
0 0 0 0 0 0 0 0 0 0 0 0 0 0 0 0 0 0 0 0 0 0 0 0 0 0 0 0 0 0 0 0 0 0 0 0 0 0 0 0 0 0 0 0 0 0 0 0 0
0 0 0 0 0 0 0 0 0 0 0 0 0 0 0 0 0 0 0 0 0 0 0 0 0 0 0 0 0 0 0 0 0 0 0 0 0 0 0 0 0 0 0 0 0 0 0 0 0
0 0 0 0 0 0 0 0 0 0 0 0 0 0 0 0 0 0 0 0 0 0 0 0 0 0 0 0 0 0 0 0 0 0 0 0 0 0 0 0 0 0 0 0 0 0 0 0 0
0 0 0 0 0 0 0 0 0 0 0 0 0 0 0 0 0 0 0 0 0 0 0 0 0 0 0 0 0 0 0 0 0 0 0 0 0 0 0 0 0 0 0 0 0 0 0 0 0
0 0 0 0 0 0 0 0 0 0 0 0 0 0 0 0 0 0 0 0 0 0 0 0 0 0 0 0 0 0 0 0 0 0 0 0 0 0 0 0 0 0 0 0 0 0 0 0 0
0 0 0 0 0 0 0 0 0 0 0 0 0 0 0 0 0 0 0 0 0 0 0 0 0 0 0 0 0 0 0 0 0 0 0 0 0 0 0 0 0 0 0 0 0 0 0 0 0
0 0 0 0 0 0 0 0 0 0 0 0 0 0 0 0 0 0 0 0 0 0 0 0 0 0 0 0 0 0 0 0 0 0 0 0 0 0 0 0 0 0 0 0 0 0 0 0 0
0 0 0 0 0 0 0 0 0 0 0 0 0 0 0 0 0 0 0 0 0 0 0 0 0 0 0 0 0 0 0 0 0 0 0 0 0 0 0 0 0 0 0 0 0 0 0 0 0
0 0 0 0 0 0 0 0 0 0 0 0 0 0 0 0 0 0 0 0 0 0 0 0 0 0 0 0 0 0 0 0 0 0 0 0 0 0 0 0 0 0 0 0 0 0 0 0 0
0 0 0 0 0 0 0 0 0 0 0 0 0 0 0 0 0 0 0 0 0 0 0 0 0 0 0 0 0 0 0 0 0 0 0 0 0 0 0 0 0 0 0 0 0 0 0 0 0
0 0 0 0 0 0 0 0 0 0 0 0 0 0 0 0 0 0 0 0 0 0 0 0 0 0 0 0 0 0 0 0 0 0 0 0 0 0 0 0 0 0 0 0 0 0 0 0 0
0 0 0 0 0 0 0 0 0 0 0 0 0 0 0 0 0 0 0 0 0 0 0 0 0 0 0 0 0 0 0 0 0 0 0 0 0 0 0 0 0 0 0 0 0 0 0 0 0
0 0 0 0 0 0 0 0 0 0 0 0 0 0 0 0 0 0 0 0 0 0 0 0 0 0 0 0 0 0 0 0 0 0 0 0 0 0 0 0 0 0 0 0 0 0 0 0 0
0 0 0 0 0 0 0 0 0 0 0 0 0 0 0 0 0 0 0 0 0 0 0 0 0 0 0 0 0 0 0 0 0 0 0 0 0 0 0 0 0 0 0 0 0 0 0 0 0
0 0 0 0 0 0 0 0 0 0 0 0 0 0 0 0 0 0 0 0 0 0 0 0 0 0 0 0 0 0 0 0 0 0 0 0 0 0 0 0 0 0 0 0 0 0 0 0 0
0 0 0 0 0 0 0 0 0 0 0 0 0 0 0 0 0 0 0 0 0 -0 -0 -0 -0 -0 0 0 0 0 0 0 0 0 0 0 0 0 0 0 0 0 0 0 0 0 0 0 0
0 0 0 0 0 0 0 0 0 0 0 0 0 0 0 0 0 0 0 0 -0 -0 -0 -0 -0 -0 0 0 0 0 0 0 0 0 0 0 0 0 0 0 0 0 0 0 0 0 0 0 0
0 0 0 0 0 0 0 0 0 0 0 0 0 0 0 0 0 0 -0 -0 -0 -0 -0 -0 -0 -0 -0 -0 -0 0 0 0 0 0 0 0 0 0 0 0 0 0 0 0 0 0 0 0 0
0 0 0 0 0 0 0 0 0 0 0 0 0 0 0 0 0 0 -0 -0 -0 -0 -0 -0 -0 -0 -0 -0 -0 -0 -0 -0 -0 -0 0 0 0 0 0 0 0 0 0 0 0 0 0 0 0
0 0 0 0 0 0 0 0 0 0 0 0 0 0 0 0 -0 -0 -0 -0 -0 -0 -0 -0 -0 -0 -0 -0 -0 -0 -0 -0 -0 -0 -0 -0 0 0 0 0 0 0 0 0 0 0 0 0 0
Wind_Speed_500mb
16 11 7 9 8 10 8 4 5 10 5 3 2 2 6 7 4 6 8 8 10 16 29 42 41 39 38 37 34 31 27 24 21 19 16 16 17 15 13 11 9 7 6 2 3 6 6 5 2
11 6 7 2 8 6 9 4 7 8 5 3 2 0 2 2 5 8 7 14 13 13 28 39 40 41 39 38 36 32 29 26 24 23 22 18 13 13 16 16 13 12 9 5 6 8 8 8 5
7 5 6 7 5 4 4 5 4 4 10 3 3 5 3 5 5 2 4 10 16 17 22 37 40 41 41 40 37 33 31 29 26 25 25 18 15 18 18 17 17 18 10 7 10 9 9 8 8
7 3 4 7 5 8 6 3 8 5 4 5 2 9 4 4 3 5 3 9 18 19 20 31 43 43 41 41 39 35 34 32 29 27 25 21 24 22 19 19 21 18 12 11 12 9 8 6 3
11 2 5 3 9 5 7 14 9 1 7 10 8 4 12 8 3 5 6 7 16 19 23 26 37 43 43 43 41 38 37 35 32 31 26 25 29 23 19 20 19 17 16 14 11 9 7 5 5
7 3 7 3 9 10 6 16 4 3 7 10 6 3 4 10 8 1 6 5 12 19 21 26 30 40 44 44 43 40 38 36 35 33 30 25 29 23 17 21 19 19 19 16 12 10 9 7 7
3 6 6 6 9 12 4 8 6 5 14 8 3 2 6 11 12 6 6 7 12 18 23 27 30 35 42 46 45 42 40 38 36 33 35 32 33 31 21 23 21 20 19 15 12 12 11 10 9
5 7 7 7 6 10 11 7 2 4 7 7 1 4 5 9 13 15 17 16 15 22 26 28 33 36 41 47 48 45 42 41 39 41 40 38 42 30 27 25 22 21 21 18 15 15 14 12 11
1 7 5 8 9 11 13 10 4 6 14 28 15 29 36 41 30 26 29 27 26 27 31 32 33 38 39 46 49 47 46 46 44 46 44 47 46 35 29 27 26 25 24 20 19 17 16 15 13
7 7 11 6 2 7 18 6 17 10 29 50 41 37 23 30 44 36 36 35 33 35 38 39 37 36 40 45 50 52 52 50 50 51 50 52 50 42 32 31 30 29 27 24 23 23 22 20 18
10 9 7 22 38 35 20 32 23 16 11 47 55 44 41 35 29 39 44 45 45 37 37 42 41 41 41 44 46 54 55 55 55 55 55 55 52 48 40 36 34 33 31 29 28 26 26 24 22
6 25 33 25 32 26 16 20 22 29 52 44 54 50 47 49 49 50 47 48 50 45 38 37 38 40 44 46 47 47 50 54 57 58 57 59 57 55 49 43 39 37 34 33 33 32 33 30 27
9 12 12 27 34 42 39 26 28 44 57 37 37 41 41 26 34 35 41 42 38 45 42 40 41 41 40 45 50 49 48 48 48 55 58 60 61 60 58 50 44 41 39 37 38 38 38 35 33
9 12 23 31 53 53 23 26 9 35 38 32 25 33 27 33 34 38 40 47 44 38 37 37 40 42 41 40 48 53 52 51 48 50 52 58 57 58 61 55 48 46 44 41 41 41 41 40 39
10 11 15 35 32 15 9 11 17 34 25 34 37 46 56 47 28 28 22 27 40 39 34 33 30 37 41 40 39 49 54 54 54 52 51 52 50 51 56 54 51 50 48 47 46 46 48 47 46
8 2 7 12 1 3 4 11 17 22 34 43 52 56 42 23 20 18 19 14 7 14 24 22 18 25 33 36 37 39 48 53 49 48 49 50 51 50 52 52 49 51 54 53 53 51 50 50 51
5 6 10 15 11 4 5 11 26 29 46 46 41 34 26 34 34 31 26 18 13 11 17 21 14 12 21 29 32 34 39 43 44 44 48 48 45 44 46 47 47 50 56 60 59 58 55 55 55
8 6 9 8 12 11 14 19 16 44 54 49 42 16 27 35 40 33 27 20 16 17 20 25 24 19 12 18 25 30 30 33 39 42 42 45 46 46 48 49 52 54 57 61 62 60 59 60 57
7 9 9 11 16 9 14 13 20 52 25 32 36 53 51 50 44 43 41 31 23 19 21 21 14 10 13 12 16 21 24 22 26 30 34 38 41 45 49 50 51 55 60 62 62 62 62 62 62
8 7 12 8 4 8 15 23 24 27 28 51 47 49 47 51 55 56 55 55 56 49 38 25 20 16 14 12 11 10 9 13 15 18 21 24 30 37 43 47 48 50 56 63 66 66 67 66 66
7 10 7 11 6 10 8 14 14 18 45 51 50 52 53 55 58 60 61 62 61 63 61 52 44 35 26 16 5 4 10 13 15 16 19 21 21 26 32 39 45 48 53 59 63 66 68 70 71
10 14 13 9 5 7 7 8 4 15 21 27 33 48 50 51 51 51 52 53 54 53 49 49 48 47 44 37 31 25 21 16 12 12 14 14 13 13 20 26 34 44 50 55 58 60 66 68 74
12 4 6 5 6 3 8 5 11 18 8 11 20 39 40 40 43 44 45 44 44 42 42 40 36 34 33 31 30 28 25 22 18 14 14 13 12 13 12 19 24 30 41 51 59 63 64 67 71
5 3 6 4 7 1 10 12 7 12 18 14 27 36 35 35 36 38 36 36 38 36 35 34 33 33 30 28 27 26 25 24 22 23 24 24 25 24 26 24 22 24 29 37 48 59 63 65 69
6 7 5 6 2 10 2 4 11 5 18 27 32 42 34 32 31 31 33 36 36 38 36 32 30 31 33 32 30 30 30 29 29 32 34 33 32 29 28 30 35 38 36 36 39 45 55 64 71
10 12 8 10 4 7 15 10 9 19 49 53 47 38 30 28 26 26 26 26 28 28 30 33 36 35 33 32 32 30 29 32 32 31 31 32 34 35 35 34 32 33 37 43 44 47 52 54 63
8 7 6 4 4 5 7 4 8 17 23 37 40 32 26 21 16 16 17 19 22 22 23 23 24 26 28 30 31 33 33 31 32 33 36 37 37 39 41 42 39 38 36 36 44 53 55 57 61
6 5 2 5 1 7 7 9 9 18 22 19 21 26 23 16 9 7 9 12 15 17 20 23 26 27 30 31 33 33 33 34 33 35 38 40 42 46 50 51 51 52 48 46 45 45 53 62 63
3 3 3 5 9 9 5 9 4 27 25 20 26 31 28 21 15 8 4 3 6 10 15 20 24 28 34 36 36 36 39 42 44 46 48 49 47 48 53 56 58 60 59 57 56 54 53 54 62
7 9 12 7 7 7 2 17 9 27 32 40 35 31 24 19 17 8 2 2 5 14 19 22 26 38 43 44 45 46 48 50 53 55 57 60 62 61 60 61 63 63 64 66 65 63 59 58 58
Wind_Direction_500mb
333 332 356 3 47 63 298 304 84 38 45 89 27 50 211 251 204 206 160 182 215 185 184 188 192 198 199 199 197 194 195 196 199 200 198 186 196 190 201 210 232 252 270 316 330 332 348 335 343
350 10 25 14 85 68 287 127 116 141 161 336 310 121 311 306 100 134 166 186 220 206 195 194 194 198 204 206 204 204 207 207 207 204 198 200 212 202 215 234 250 261 275 301 300 307 322 315 291
42 17 10 100 123 159 173 28 112 112 148 117 344 264 285 121 125 222 175 182 216 220 207 200 201 202 205 208 209 211 211 212 209 199 212 230 241 237 239 243 249 264 276 284 286 306 312 301 280
31 40 257 88 237 272 121 85 87 41 116 143 169 309 210 218 265 266 282 196 220 223 219 207 206 205 208 210 211 212 213 213 215 218 224 240 249 252 251 238 243 253 264 273 287 298 301 292 260
6 295 42 339 279 251 84 84 63 11 293 189 165 282 316 218 253 312 317 237 223 226 221 212 213 213 213 214 215 216 215 215 212 219 230 241 251 244 231 235 236 253 264 269 272 276 258 218 187
345 341 39 290 294 303 78 111 81 292 283 167 186 288 272 201 173 103 350 301 228 224 227 222 217 218 220 220 220 219 219 217 215 225 238 242 253 256 234 234 241 250 255 253 254 245 215 193 187
31 67 238 291 286 332 97 96 84 332 348 354 13 168 298 211 221 234 326 309 260 240 234 232 226 224 223 223 223 222 220 219 220 224 229 232 244 251 242 233 235 244 249 253 247 228 210 199 201
345 92 304 282 303 275 169 134 166 337 297 352 322 250 251 295 276 258 281 293 262 254 253 242 235 229 228 225 225 221 221 221 220 225 231 233 244 253 239 238 242 242 244 245 233 215 212 212 215
319 58 262 258 20 308 11 13 350 301 285 294 273 270 288 288 269 266 280 277 267 250 252 254 247 237 232 227 228 228 222 221 223 226 232 239 248 257 247 239 241 242 246 244 232 223 223 228 232
129 130 233 184 83 318 313 347 325 329 320 292 289 287 314 290 270 277 287 289 275 265 256 253 252 249 236 228 227 230 229 227 226 228 232 237 247 257 254 244 246 248 249 243 231 226 226 230 235
189 199 227 299 318 324 308 315 318 333 280 279 287 295 295 303 286 276 281 281 286 286 260 258 255 252 246 237 233 231 232 232 232 232 233 237 245 253 259 249 250 248 247 245 238 234 235 236 240
212 234 243 272 295 307 287 296 292 277 272 291 283 288 290 288 287 285 285 282 282 285 287 265 260 255 253 247 240 237 232 233 233 234 232 235 244 252 261 255 249 249 248 244 240 236 240 243 244
215 248 284 289 289 285 286 278 273 279 300 313 296 279 288 297 300 299 290 283 282 272 275 277 263 262 259 249 245 244 243 239 239 239 238 240 248 254 260 256 252 250 249 246 243 240 241 242 244
295 306 300 296 284 277 253 274 257 279 317 329 299 300 304 316 312 319 301 281 275 282 274 271 265 259 262 259 245 242 243 247 246 245 248 250 251 254 260 257 252 251 252 251 249 245 243 242 244
312 326 308 267 272 230 209 298 226 276 312 305 311 316 322 330 345 325 354 288 258 251 256 267 265 261 257 260 256 241 238 244 251 256 259 258 262 263 267 257 256 258 258 254 251 245 242 242 243
320 9 310 287 106 304 118 257 279 301 290 300 301 311 329 48 51 78 79 99 158 239 230 230 265 260 254 261 262 249 239 241 245 250 255 261 265 267 264 262 258 262 260 258 257 256 252 249 248
295 235 223 317 360 133 168 237 252 288 278 282 297 321 85 77 70 62 58 68 84 121 158 178 199 242 253 251 253 257 247 243 245 248 254 261 264 267 266 269 268 266 262 261 260 259 258 255 253
222 247 304 289 304 330 296 265 258 279 282 287 301 92 86 74 57 58 62 63 83 104 129 153 160 160 203 234 237 239 245 247 244 247 251 262 268 269 271 272 271 268 263 259 259 259 260 259 255
269 242 243 255 280 328 288 289 293 281 296 289 95 88 85 77 73 69 67 66 71 87 105 113 143 145 191 186 212 225 231 240 254 258 264 266 268 271 273 274 272 270 268 267 265 262 259 257 253
237 274 278 288 314 349 301 300 300 45 65 89 90 87 86 84 77 73 72 71 68 69 72 75 79 91 117 125 139 162 178 216 239 248 254 263 271 274 276 278 278 276 273 270 266 263 260 257 251
264 229 217 237 303 285 314 296 114 69 71 77 80 93 89 83 78 72 69 67 67 67 64 66 66 68 71 72 95 189 206 225 239 245 259 267 266 285 286 283 283 282 279 275 272 269 266 262 255
244 228 192 222 86 217 94 278 247 106 74 66 76 86 88 85 79 74 68 65 61 60 61 61 62 63 64 64 63 60 65 62 38 352 318 287 287 290 301 296 288 284 282 279 276 274 270 266 260
233 111 198 198 188 27 283 138 270 125 104 115 107 97 89 84 81 72 64 61 60 55 51 49 47 48 47 46 51 51 50 45 27 4 353 343 307 293 291 302 305 291 278 277 275 271 268 267 266
121 358 305 77 124 265 240 164 249 182 173 159 139 114 99 86 78 72 62 56 52 49 48 44 38 38 34 29 27 25 21 16 5 2 357 355 343 324 312 302 293 295 299 295 283 272 269 267 266
88 66 322 353 26 221 244 268 245 322 137 130 118 107 98 87 72 62 55 46 40 34 36 40 39 37 32 30 29 28 22 13 7 1 357 351 347 342 338 327 316 303 292 282 286 285 273 266 265
177 167 159 224 220 250 345 271 351 66 92 101 105 103 95 84 73 62 48 44 41 39 37 32 30 32 31 28 27 25 23 18 12 7 2 356 352 346 339 331 325 316 304 292 281 277 279 274 266
193 167 179 125 87 48 220 117 72 95 96 106 114 112 106 96 78 62 48 37 37 33 35 37 34 26 19 13 10 6 4 2 359 354 348 345 343 338 336 333 329 325 319 306 294 284 276 276 275
147 167 62 11 238 258 274 243 189 169 139 132 137 135 131 132 122 87 46 46 42 39 34 27 24 23 16 7 4 355 351 347 343 338 333 331 331 329 327 325 325 323 322 319 312 302 290 280 274
78 183 155 147 148 189 261 254 240 161 150 153 162 174 178 181 180 172 160 100 46 30 22 15 11 8 7 360 355 349 347 343 339 333 328 330 326 322 321 319 317 318 319 318 315 312 307 297 287
191 222 175 173 233 248 242 266 93 136 161 169 184 185 182 182 185 192 259 319 339 350 344 346 350 356 353 349 344 342 337 333 329 329 329 326 324 323 318 313 311 311 312 311 311 309 309 304 299
Wind_Speed_850mb
16 11 7 9 8 10 8 4 5 10 5 3 2 2 6 7 4 6 8 8 10 16 29 42 41 39 38 37 34 31 27 24 21 19 16 16 17 15 13 11 9 7 6 2 3 6 6 5 2
11 6 7 2 8 6 9 4 7 8 5 3 2 0 2 2 5 8 7 14 13 13 28 39 40 41 39 38 36 32 29 26 24 23 22 18 13 13 16 16 13 12 9 5 6 8 8 8 5
7 5 6 7 5 4 4 5 4 4 10 3 3 5 3 5 5 2 4 10 16 17 22 37 40 41 41 40 37 33 31 29 26 25 25 18 15 18 18 17 17 18 10 7 10 9 9 8 8
7 3 4 7 5 8 6 3 8 5 4 5 2 9 4 4 3 5 3 9 18 19 20 31 43 43 41 41 39 35 34 32 29 27 25 21 24 22 19 19 21 18 12 11 12 9 8 6 3
11 2 5 3 9 5 7 14 9 1 7 10 8 4 12 8 3 5 6 7 16 19 23 26 37 43 43 43 41 38 37 35 32 31 26 25 29 23 19 20 19 17 16 14 11 9 7 5 5
7 3 7 3 9 10 6 16 4 3 7 10 6 3 4 10 8 1 6 5 12 19 21 26 30 40 44 44 43 40 38 36 35 33 30 25 29 23 17 21 19 19 19 16 12 10 9 7 7
3 6 6 6 9 12 4 8 6 5 14 8 3 2 6 11 12 6 6 7 12 18 23 27 30 35 42 46 45 42 40 38 36 33 35 32 33 31 21 23 21 20 19 15 12 12 11 10 9
5 7 7 7 6 10 11 7 2 4 7 7 1 4 5 9 13 15 17 16 15 22 26 28 33 36 41 47 48 45 42 41 39 41 40 38 42 30 27 25 22 21 21 18 15 15 14 12 11
1 7 5 8 9 11 13 10 4 6 14 28 15 29 36 41 30 26 29 27 26 27 31 32 33 38 39 46 49 47 46 46 44 46 44 47 46 35 29 27 26 25 24 20 19 17 16 15 13
7 7 11 6 2 7 18 6 17 10 29 50 41 37 23 30 44 36 36 35 33 35 38 39 37 36 40 45 50 52 52 50 50 51 50 52 50 42 32 31 30 29 27 24 23 23 22 20 18
10 9 7 22 38 35 20 32 23 16 11 47 55 44 41 35 29 39 44 45 45 37 37 42 41 41 41 44 46 54 55 55 55 55 55 55 52 48 40 36 34 33 31 29 28 26 26 24 22
6 25 33 25 32 26 16 20 22 29 52 44 54 50 47 49 49 50 47 48 50 45 38 37 38 40 44 46 47 47 50 54 57 58 57 59 57 55 49 43 39 37 34 33 33 32 33 30 27
9 12 12 27 34 42 39 26 28 44 57 37 37 41 41 26 34 35 41 42 38 45 42 40 41 41 40 45 50 49 48 48 48 55 58 60 61 60 58 50 44 41 39 37 38 38 38 35 33
9 12 23 31 53 53 23 26 9 35 38 32 25 33 27 33 34 38 40 47 44 38 37 37 40 42 41 40 48 53 52 51 48 50 52 58 57 58 61 55 48 46 44 41 41 41 41 40 39
10 11 15 35 32 15 9 11 17 34 25 34 37 46 56 47 28 28 22 27 40 39 34 33 30 37 41 40 39 49 54 54 54 52 51 52 50 51 56 54 51 50 48 47 46 46 48 47 46
8 2 7 12 1 3 4 11 17 22 34 43 52 56 42 23 20 18 19 14 7 14 24 22 18 25 33 36 37 39 48 53 49 48 49 50 51 50 52 52 49 51 54 53 53 51 50 50 51
5 6 10 15 11 4 5 11 26 29 46 46 41 34 26 34 34 31 26 18 13 11 17 21 14 12 21 29 32 34 39 43 44 44 48 48 45 44 46 47 47 50 56 60 59 58 55 55 55
8 6 9 8 12 11 14 19 16 44 54 49 42 16 27 35 40 33 27 20 16 17 20 25 24 19 12 18 25 30 30 33 39 42 42 45 46 46 48 49 52 54 57 61 62 60 59 60 57
7 9 9 11 16 9 14 13 20 52 25 32 36 53 51 50 44 43 41 31 23 19 21 21 14 10 13 12 16 21 24 22 26 30 34 38 41 45 49 50 51 55 60 62 62 62 62 62 62
8 7 12 8 4 8 15 23 24 27 28 51 47 49 47 51 55 56 55 55 56 49 38 25 20 16 14 12 11 10 9 13 15 18 21 24 30 37 43 47 48 50 56 63 66 66 67 66 66
7 10 7 11 6 10 8 14 14 18 45 51 50 52 53 55 58 60 61 62 61 63 61 52 44 35 26 16 5 4 10 13 15 16 19 21 21 26 32 39 45 48 53 59 63 66 68 70 71
10 14 13 9 5 7 7 8 4 15 21 27 33 48 50 51 51 51 52 53 54 53 49 49 48 47 44 37 31 25 21 16 12 12 14 14 13 13 20 26 34 44 50 55 58 60 66 68 74
12 4 6 5 6 3 8 5 11 18 8 11 20 39 40 40 43 44 45 44 44 42 42 40 36 34 33 31 30 28 25 22 18 14 14 13 12 13 12 19 24 30 41 51 59 63 64 67 71
5 3 6 4 7 1 10 12 7 12 18 14 27 36 35 35 36 38 36 36 38 36 35 34 33 33 30 28 27 26 25 24 22 23 24 24 25 24 26 24 22 24 29 37 48 59 63 65 69
6 7 5 6 2 10 2 4 11 5 18 27 32 42 34 32 31 31 33 36 36 38 36 32 30 31 33 32 30 30 30 29 29 32 34 33 32 29 28 30 35 38 36 36 39 45 55 64 71
10 12 8 10 4 7 15 10 9 19 49 53 47 38 30 28 26 26 26 26 28 28 30 33 36 35 33 32 32 30 29 32 32 31 31 32 34 35 35 34 32 33 37 43 44 47 52 54 63
8 7 6 4 4 5 7 4 8 17 23 37 40 32 26 21 16 16 17 19 22 22 23 23 24 26 28 30 31 33 33 31 32 33 36 37 37 39 41 42 39 38 36 36 44 53 55 57 61
6 5 2 5 1 7 7 9 9 18 22 19 21 26 23 16 9 7 9 12 15 17 20 23 26 27 30 31 33 33 33 34 33 35 38 40 42 46 50 51 51 52 48 46 45 45 53 62 63
3 3 3 5 9 9 5 9 4 27 25 20 26 31 28 21 15 8 4 3 6 10 15 20 24 28 34 36 36 36 39 42 44 46 48 49 47 48 53 56 58 60 59 57 56 54 53 54 62
7 9 12 7 7 7 2 17 9 27 32 40 35 31 24 19 17 8 2 2 5 14 19 22 26 38 43 44 45 46 48 50 53 55 57 60 62 61 60 61 63 63 64 66 65 63 59 58 58
Wind_Direction_850mb
333 332 356 3 47 63 298 304 84 38 45 89 27 50 211 251 204 206 160 182 215 185 184 188 192 198 199 199 197 194 195 196 199 200 198 186 196 190 201 210 232 252 270 316 330 332 348 335 343
350 10 25 14 85 68 287 127 116 141 161 336 310 121 311 306 100 134 166 186 220 206 195 194 194 198 204 206 204 204 207 207 207 204 198 200 212 202 215 234 250 261 275 301 300 307 322 315 291
42 17 10 100 123 159 173 28 112 112 148 117 344 264 285 121 125 222 175 182 216 220 207 200 201 202 205 208 209 211 211 212 209 199 212 230 241 237 239 243 249 264 276 284 286 306 312 301 280
31 40 257 88 237 272 121 85 87 41 116 143 169 309 210 218 265 266 282 196 220 223 219 207 206 205 208 210 211 212 213 213 215 218 224 240 249 252 251 238 243 253 264 273 287 298 301 292 260
6 295 42 339 279 251 84 84 63 11 293 189 165 282 316 218 253 312 317 237 223 226 221 212 213 213 213 214 215 216 215 215 212 219 230 241 251 244 231 235 236 253 264 269 272 276 258 218 187
345 341 39 290 294 303 78 111 81 292 283 167 186 288 272 201 173 103 350 301 228 224 227 222 217 218 220 220 220 219 219 217 215 225 238 242 253 256 234 234 241 250 255 253 254 245 215 193 187
31 67 238 291 286 332 97 96 84 332 348 354 13 168 298 211 221 234 326 309 260 240 234 232 226 224 223 223 223 222 220 219 220 224 229 232 244 251 242 233 235 244 249 253 247 228 210 199 201
345 92 304 282 303 275 169 134 166 337 297 352 322 250 251 295 276 258 281 293 262 254 253 242 235 229 228 225 225 221 221 221 220 225 231 233 244 253 239 238 242 242 244 245 233 215 212 212 215
319 58 262 258 20 308 11 13 350 301 285 294 273 270 288 288 269 266 280 277 267 250 252 254 247 237 232 227 228 228 222 221 223 226 232 239 248 257 247 239 241 242 246 244 232 223 223 228 232
129 130 233 184 83 318 313 347 325 329 320 292 289 287 314 290 270 277 287 289 275 265 256 253 252 249 236 228 227 230 229 227 226 228 232 237 247 257 254 244 246 248 249 243 231 226 226 230 235
189 199 227 299 318 324 308 315 318 333 280 279 287 295 295 303 286 276 281 281 286 286 260 258 255 252 246 237 233 231 232 232 232 232 233 237 245 253 259 249 250 248 247 245 238 234 235 236 240
212 234 243 272 295 307 287 296 292 277 272 291 283 288 290 288 287 285 285 282 282 285 287 265 260 255 253 247 240 237 232 233 233 234 232 235 244 252 261 255 249 249 248 244 240 236 240 243 244
215 248 284 289 289 285 286 278 273 279 300 313 296 279 288 297 300 299 290 283 282 272 275 277 263 262 259 249 245 244 243 239 239 239 238 240 248 254 260 256 252 250 249 246 243 240 241 242 244
295 306 300 296 284 277 253 274 257 279 317 329 299 300 304 316 312 319 301 281 275 282 274 271 265 259 262 259 245 242 243 247 246 245 248 250 251 254 260 257 252 251 252 251 249 245 243 242 244
312 326 308 267 272 230 209 298 226 276 312 305 311 316 322 330 345 325 354 288 258 251 256 267 265 261 257 260 256 241 238 244 251 256 259 258 262 263 267 257 256 258 258 254 251 245 242 242 243
320 9 310 287 106 304 118 257 279 301 290 300 301 311 329 48 51 78 79 99 158 239 230 230 265 260 254 261 262 249 239 241 245 250 255 261 265 267 264 262 258 262 260 258 257 256 252 249 248
295 235 223 317 360 133 168 237 252 288 278 282 297 321 85 77 70 62 58 68 84 121 158 178 199 242 253 251 253 257 247 243 245 248 254 261 264 267 266 269 268 266 262 261 260 259 258 255 253
222 247 304 289 304 330 296 265 258 279 282 287 301 92 86 74 57 58 62 63 83 104 129 153 160 160 203 234 237 239 245 247 244 247 251 262 268 269 271 272 271 268 263 259 259 259 260 259 255
269 242 243 255 280 328 288 289 293 281 296 289 95 88 85 77 73 69 67 66 71 87 105 113 143 145 191 186 212 225 231 240 254 258 264 266 268 271 273 274 272 270 268 267 265 262 259 257 253
237 274 278 288 314 349 301 300 300 45 65 89 90 87 86 84 77 73 72 71 68 69 72 75 79 91 117 125 139 162 178 216 239 248 254 263 271 274 276 278 278 276 273 270 266 263 260 257 251
264 229 217 237 303 285 314 296 114 69 71 77 80 93 89 83 78 72 69 67 67 67 64 66 66 68 71 72 95 189 206 225 239 245 259 267 266 285 286 283 283 282 279 275 272 269 266 262 255
244 228 192 222 86 217 94 278 247 106 74 66 76 86 88 85 79 74 68 65 61 60 61 61 62 63 64 64 63 60 65 62 38 352 318 287 287 290 301 296 288 284 282 279 276 274 270 266 260
233 111 198 198 188 27 283 138 270 125 104 115 107 97 89 84 81 72 64 61 60 55 51 49 47 48 47 46 51 51 50 45 27 4 353 343 307 293 291 302 305 291 278 277 275 271 268 267 266
121 358 305 77 124 265 240 164 249 182 173 159 139 114 99 86 78 72 62 56 52 49 48 44 38 38 34 29 27 25 21 16 5 2 357 355 343 324 312 302 293 295 299 295 283 272 269 267 266
88 66 322 353 26 221 244 268 245 322 137 130 118 107 98 87 72 62 55 46 40 34 36 40 39 37 32 30 29 28 22 13 7 1 357 351 347 342 338 327 316 303 292 282 286 285 273 266 265
177 167 159 224 220 250 345 271 351 66 92 101 105 103 95 84 73 62 48 44 41 39 37 32 30 32 31 28 27 25 23 18 12 7 2 356 352 346 339 331 325 316 304 292 281 277 279 274 266
193 167 179 125 87 48 220 117 72 95 96 106 114 112 106 96 78 62 48 37 37 33 35 37 34 26 19 13 10 6 4 2 359 354 348 345 343 338 336 333 329 325 319 306 294 284 276 276 275
147 167 62 11 238 258 274 243 189 169 139 132 137 135 131 132 122 87 46 46 42 39 34 27 24 23 16 7 4 355 351 347 343 338 333 331 331 329 327 325 325 323 322 319 312 302 290 280 274
78 183 155 147 148 189 261 254 240 161 150 153 162 174 178 181 180 172 160 100 46 30 22 15 11 8 7 360 355 349 347 343 339 333 328 330 326 322 321 319 317 318 319 318 315 312 307 297 287
191 222 175 173 233 248 242 266 93 136 161 169 184 185 182 182 185 192 259 319 339 350 344 346 350 356 353 349 344 342 337 333 329 329 329 326 324 323 318 313 311 311 312 311 311 309 309 304 299